[ hide orbit diagram ]
For accurate long-term ephemerides, please instead use our Horizons system.This orbit viewer was implemented using two-body methods, and hence should not be used for determining accurate long-term trajectories (over several years or decades) or planetary encounter circumstances.
Orbital Elements at Epoch 2459000.5 (2020-May-31.0) TDB
Reference: JPL 13 (heliocentric ecliptic J2000)
Element | Value | Uncertainty (1-sigma) | Units |
e | .05317138142222012 | 4.8058e-08 | |
a | 2.228158293143338 | 1.2434e-08 | au |
q | 2.10968403866953 | 1.0508e-07 | au |
i | 1.344256917535224 | 4.825e-06 | deg |
node | 347.478298608934 | 0.00016028 | deg |
peri | 196.1262968792841 | 0.0001658 | deg |
M | 30.82494973333084 | 3.9423e-05 | deg |
tp | 2458896.479876665160 (2020-Feb-16.97987667) | 0.00013343 | TDB |
period | 1214.835538240987 3.33 | 1.0169e-05 2.784e-08 | d yr |
n | .2963364082361795 | 2.4805e-09 | deg/d |
Q | 2.346632547617145 | 1.3095e-08 | au |
|
| | Orbit Determination Parameters
Additional Information
|
[ show covariance matrix ]
Physical Parameter Table
Parameter |
Symbol |
Value |
Units |
Sigma |
Reference |
Notes |
absolute magnitude |
H |
17.9 |
|
n/a |
MPO471116 |
|
|
295589 (2008 SZ132) Discovered 2008-Sep-22 by Spacewatch at Kitt Peak |
Reference: 20110912/Numbers.arc | Last Updated: 2011-09-14 |
|
|